Airfield :
LOGIN :

Register | Disclaimer

   EN    FR    IT 

 










Legend :    VFR   Marginal VFR   IFR   Intensive IFR   Very Intensive IFR
Visi :
Ceiling :
>= 8 km
>= 3000ft
5 to 8 km
1000 to 3000 ft
1500m to 5 km
500 to 1000 ft
800 to 1500m
200 to 500 ft
< 800m
< 200 ft
Symbols :   Thunderstorms  Fog  Heavy snow  Heavy precipitations  Wind > 20 kt
SIGMETs :     Misc.  Thunderstorms  Icing  Turbulence  Mountain Waves  Volcanic Ashes






- Airport Elevation : 9 ft
- IATA code : MIR


DTMB - Habib Bourguliba Int. Monastir

CURRENT METAR :
  • 150330Z 12004KT 8000 FEW013 16/13 Q1017

EXPIRED METARs :
  • 150300Z 12005KT CAVOK 16/12 Q1017
  • 150230Z 12005KT CAVOK 16/12 Q1017
  • 150200Z 12004KT CAVOK 16/12 Q1017
  • 150130Z 11004KT CAVOK 16/12 Q1017

TAF TAF DTMB
Valid from the 15 at 00:00 until the 16 at 00:00 UTC


150000Z 1500/1524 14008KT CAVOK
BECMG 1502/1504 14005KT
PROB30
TEMPO 1504/1508 4000 SHRA SCT020TCU
BECMG 1515/1517 09015KT
TEMPO 1520/1524 11015G25KT



MET'MAP, your aeronautical weather chart ! - Copyright ORBIFLY December 2007 - Disclaimer

ORBIFLY MET'MAP TEAM :

Programming & Development : Alexandra Zaïnal
Concept & original design : Baudouin d'Aumeries
Assistance for programming : Marc-Olivier Méhu
Technical & hardware support : Manuel Goepfert

Contact : metmap@orbifly.com




SOURCES & CREDITS :

   NOAA